Home   Weather   Omaha   Past weeks

Flag for USA Past Weather in Omaha, Nebraska, USA — Yesterday and Last 2 Weeks

66 °F

Light rain. Passing clouds.

Feels Like: 66 °F
Forecast: 51 / 63 °F
Wind: 7 mph from Southeast

Location: Millard Airport

Current Time: Oct 25, 2016 at 11:05:57 PM

Latest Report: Oct 25, 2016 at 10:35 PM

Visibility: 10 mi

Pressure: 29.92 "Hg

Humidity: 80%

Dew Point: 60 °F

Location of OmahaLocation

Past Weather in Omaha — Graph


Omaha Temperature Yesterday

Maximum temperature yesterday: 64 °F (at 3:55 PM)
Minimum temperature yesterday: 42 °F (at 7:55 AM)
Average temperature yesterday: 53 °F

High & Low Weather Summary for the Past Weeks

High83 °F (Oct 17, 3:35 PM)98% (Oct 13, 4:55 AM)30.41 "Hg (Oct 13, 4:55 AM)
Low32 °F (Oct 13, 6:35 AM)26% (Oct 23, 3:35 PM)29.32 "Hg (Oct 17, 2:55 PM)
Average57 °F73%30.02 "Hg
* Reported Oct 10 9:15 PM — Oct 25 9:55 PM, Omaha, Weather by CustomWeather, © 2016

Note: Actual official high and low records may vary slightly from our data, if they occured in-between our weather recording intervals... More about our weather records


Omaha Weather History for the Previous 24 Hours

Scroll right to see more
Time TempWeatherWind HumidityBarometerVisibility
9:55 PM
Tue, Oct 25
67 °FOvercast.8 mph77%29.93 "Hg10 mi
9:35 PM67 °FMostly cloudy.7 mph75%29.93 "Hg10 mi
9:15 PM67 °FOvercast.8 mph75%29.93 "Hg10 mi
8:55 PM66 °FPartly cloudy.8 mph75%29.94 "Hg10 mi
8:35 PM67 °FPassing clouds.12 mph73%29.94 "Hg10 mi
7:55 PM67 °FPassing clouds.14 mph71%29.94 "Hg10 mi
7:35 PM68 °FClear.13 mph70%29.94 "Hg10 mi
7:15 PM68 °FClear.13 mph69%29.94 "Hg10 mi
6:55 PM69 °FClear.14 mph67%29.94 "Hg10 mi
6:15 PM70 °FSunny.13 mph64%29.94 "Hg10 mi
5:55 PM71 °FSunny.14 mph63%29.94 "Hg10 mi
5:35 PM71 °FSunny.9 mph63%29.94 "Hg10 mi
5:15 PM70 °FSunny.7 mph62%29.95 "Hg10 mi
4:55 PM71 °FSunny.9 mph62%29.95 "Hg10 mi
4:35 PM71 °FSunny.13 mph62%29.96 "Hg10 mi
4:15 PM70 °FSunny.14 mph63%29.97 "Hg10 mi
3:55 PM70 °FSunny.10 mph62%29.98 "Hg10 mi
3:35 PM69 °FSunny.16 mph63%29.98 "Hg10 mi
3:15 PM70 °FSunny.15 mph62%29.98 "Hg10 mi
2:55 PM69 °FSunny.15 mph62%29.99 "Hg10 mi
2:35 PM68 °FSunny.12 mph62%30.01 "Hg10 mi
2:15 PM68 °FSunny.14 mph63%30.02 "Hg10 mi
1:55 PM68 °FSunny.15 mph62%30.03 "Hg10 mi
1:15 PM66 °FPartly sunny.14 mph64%30.06 "Hg10 mi
12:55 PM65 °FMore clouds than sun.9 mph65%30.08 "Hg10 mi
12:35 PM64 °FMore clouds than sun.10 mph67%30.10 "Hg10 mi
12:15 PM63 °FPartly sunny.13 mph67%30.10 "Hg10 mi
11:55 AM62 °FBroken clouds.10 mph68%30.10 "Hg10 mi
11:35 AM61 °FOvercast.13 mph69%30.12 "Hg10 mi
11:15 AM60 °FOvercast.12 mph71%30.13 "Hg10 mi
10:55 AM60 °FMore clouds than sun.10 mph72%30.13 "Hg10 mi
10:15 AM59 °FScattered clouds.9 mph72%30.14 "Hg10 mi
9:55 AM58 °FScattered clouds.10 mph72%30.15 "Hg10 mi
9:35 AM56 °FMore clouds than sun.8 mph76%30.14 "Hg10 mi
9:15 AM56 °FMore clouds than sun.8 mph76%30.15 "Hg10 mi
8:55 AM55 °FOvercast.8 mph76%30.15 "Hg10 mi
8:35 AM55 °FPartly sunny.7 mph77%30.15 "Hg10 mi
8:15 AM54 °FPartly sunny.6 mph77%30.15 "Hg10 mi
7:55 AM54 °FMostly cloudy.6 mph76%30.14 "Hg10 mi
7:35 AM55 °FMostly cloudy.8 mph76%30.15 "Hg10 mi
7:15 AM55 °FMostly cloudy.7 mph75%30.15 "Hg10 mi
6:55 AM54 °FOvercast.8 mph75%30.15 "Hg10 mi
6:35 AM54 °FOvercast.7 mph76%30.16 "Hg10 mi
6:15 AM54 °FOvercast.8 mph76%30.17 "Hg10 mi
5:55 AM54 °FOvercast.7 mph75%30.18 "Hg10 mi
5:35 AM54 °FPassing clouds.5 mph75%30.17 "Hg10 mi
5:15 AM54 °FPassing clouds.6 mph76%30.18 "Hg10 mi
4:55 AM54 °FOvercast.7 mph76%30.18 "Hg10 mi
4:35 AM54 °FOvercast.7 mph75%30.18 "Hg10 mi
4:15 AM54 °FOvercast.8 mph75%30.19 "Hg10 mi
3:55 AM54 °FOvercast.5 mph75%30.20 "Hg10 mi
3:15 AM54 °FOvercast.7 mph76%30.22 "Hg10 mi
2:55 AM54 °FOvercast.7 mph76%30.22 "Hg10 mi
2:15 AM53 °FPassing clouds.3 mph77%30.23 "Hg10 mi
1:55 AM52 °FClear.5 mph80%30.23 "Hg10 mi
1:35 AM52 °FClear.6 mph78%30.23 "Hg10 mi
1:15 AM52 °FClear.7 mph79%30.23 "Hg10 mi
12:55 AM52 °FClear.7 mph79%30.24 "Hg10 mi
12:15 AM54 °FClear.7 mph73%30.25 "Hg10 mi
11:55 PM
Mon, Oct 24
54 °FClear.5 mph73%30.25 "Hg10 mi
11:13 PM53 °FClear.No wind74%30.27 "Hg10 mi
Weather by CustomWeather, © 2016

See weather overviewHow to use our weather pages